Time,TemperatureF,DewpointF,PressureIn,WindDirection,WindDirectionDegrees,WindSpeedMPH,WindSpeedGustMPH,Humidity,HourlyPrecipIn,Conditions,Clouds,dailyrainin,SoftwareType,DateUTC
2013-01-21 00:04:00,35.7,-4.9,30.23,NW,316,2.0,6.0,17,0.00,,,0.00,WUHU216DAVISVP2,2013-01-21 08:04:00,
2013-01-21 00:09:00,35.8,-4.9,30.23,NW,316,4.0,6.0,17,0.00,,,0.00,WUHU216DAVISVP2,2013-01-21 08:09:00,
2013-01-21 00:14:00,35.8,-4.8,30.22,NW,317,5.0,5.0,17,0.00,,,0.00,WUHU216DAVISVP2,2013-01-21 08:14:00,
2013-01-21 00:20:00,36.4,-3.1,30.22,NW,317,5.0,5.0,18,0.00,,,0.00,WUHU216DAVISVP2,2013-01-21 08:20:00,
2013-01-21 00:25:00,37.0,-3.8,30.22,NW,317,4.0,5.0,17,0.00,,,0.00,WUHU216DAVISVP2,2013-01-21 08:25:00,
2013-01-21 00:30:00,37.1,-5.0,30.22,NNW,336,1.0,6.0,16,0.00,,,0.00,WUHU216DAVISVP2,2013-01-21 08:30:00,
2013-01-21 00:35:00,37.0,-3.8,30.22,NNW,338,5.0,7.0,17,0.00,,,0.00,WUHU216DAVISVP2,2013-01-21 08:35:00,
2013-01-21 00:40:00,37.7,-4.5,30.22,NW,315,8.0,8.0,16,0.00,,,0.00,WUHU216DAVISVP2,2013-01-21 08:40:00,
2013-01-21 00:45:00,38.8,-3.6,30.22,NW,326,9.0,9.0,16,0.00,,,0.00,WUHU216DAVISVP2,2013-01-21 08:45:00,
2013-01-21 00:50:00,39.5,-3.0,30.22,NNW,333,6.0,13.0,16,0.00,,,0.00,WUHU216DAVISVP2,2013-01-21 08:50:00,
2013-01-21 00:55:00,38.2,-5.5,30.22,NW,315,0.0,13.0,15,0.00,,,0.00,WUHU216DAVISVP2,2013-01-21 08:55:00,
2013-01-21 01:00:00,37.2,-4.9,30.22,NW,315,3.0,13.0,16,0.00,,,0.00,WUHU216DAVISVP2,2013-01-21 09:00:00,
2013-01-21 01:05:00,37.3,-4.8,30.22,NW,315,3.0,13.0,16,0.00,,,0.00,WUHU216DAVISVP2,2013-01-21 09:05:00,
2013-01-21 01:11:00,38.3,-4.0,30.22,NW,321,6.0,6.0,16,0.00,,,0.00,WUHU216DAVISVP2,2013-01-21 09:11:00,
2013-01-21 01:16:00,39.0,-3.5,30.22,NNW,345,7.0,9.0,16,0.00,,,0.00,WUHU216DAVISVP2,2013-01-21 09:16:00,
2013-01-21 01:21:00,39.2,-4.6,30.22,NNW,346,6.0,9.0,15,0.00,,,0.00,WUHU216DAVISVP2,2013-01-21 09:21:00,
2013-01-21 01:26:00,38.3,-5.4,30.22,North,349,8.0,9.0,15,0.00,,,0.00,WUHU216DAVISVP2,2013-01-21 09:26:00,
2013-01-21 01:31:00,37.3,-4.9,30.22,NW,304,6.0,9.0,16,0.00,,,0.00,WUHU216DAVISVP2,2013-01-21 09:31:00,
2013-01-21 01:37:00,37.1,-5.0,30.22,NNW,328,9.0,10.0,16,0.00,,,0.00,WUHU216DAVISVP2,2013-01-21 09:37:00,
2013-01-21 01:42:00,36.6,-5.4,30.22,NW,313,5.0,10.0,16,0.00,,,0.00,WUHU216DAVISVP2,2013-01-21 09:42:00,
2013-01-21 01:47:00,36.3,-4.4,30.22,NW,313,3.0,10.0,17,0.00,,,0.00,WUHU216DAVISVP2,2013-01-21 09:47:00,
2013-01-21 01:52:00,38.1,-2.9,30.22,North,355,6.0,10.0,17,0.00,,,0.00,WUHU216DAVISVP2,2013-01-21 09:52:00,
2013-01-21 01:57:00,40.4,-3.7,30.22,North,355,8.0,10.0,15,0.00,,,0.00,WUHU216DAVISVP2,2013-01-21 09:57:00,
2013-01-21 02:02:00,40.6,-5.0,30.22,NNW,348,10.0,11.0,14,0.00,,,0.00,WUHU216DAVISVP2,2013-01-21 10:02:00,
2013-01-21 02:07:00,39.8,-4.2,30.22,NNW,336,3.0,11.0,15,0.00,,,0.00,WUHU216DAVISVP2,2013-01-21 10:07:00,
2013-01-21 02:12:00,37.5,-6.0,30.22,NNW,336,1.0,11.0,15,0.00,,,0.00,WUHU216DAVISVP2,2013-01-21 10:12:00,
2013-01-21 02:18:00,37.9,-3.1,30.21,NNW,336,3.0,11.0,17,0.00,,,0.00,WUHU216DAVISVP2,2013-01-21 10:18:00,
2013-01-21 02:23:00,38.4,-5.3,30.21,NNW,336,0.0,8.0,15,0.00,,,0.00,WUHU216DAVISVP2,2013-01-21 10:23:00,
2013-01-21 02:28:00,37.7,-4.5,30.21,NNW,336,0.0,5.0,16,0.00,,,0.00,WUHU216DAVISVP2,2013-01-21 10:28:00,
2013-01-21 02:33:00,37.3,-4.8,30.21,NNW,336,2.0,5.0,16,0.00,,,0.00,WUHU216DAVISVP2,2013-01-21 10:33:00,
2013-01-21 02:38:00,37.5,-4.7,30.21,NNW,336,2.0,4.0,16,0.00,,,0.00,WUHU216DAVISVP2,2013-01-21 10:38:00,
2013-01-21 02:43:00,38.0,-4.3,30.21,NNW,336,0.0,4.0,16,0.00,,,0.00,WUHU216DAVISVP2,2013-01-21 10:43:00,
2013-01-21 02:48:00,38.5,-3.9,30.21,NNW,336,4.0,5.0,16,0.00,,,0.00,WUHU216DAVISVP2,2013-01-21 10:48:00,
2013-01-21 02:54:00,38.6,-3.8,30.20,NNW,336,1.0,5.0,16,0.00,,,0.00,WUHU216DAVISVP2,2013-01-21 10:54:00,
2013-01-21 02:59:00,38.2,-5.5,30.21,NNW,336,2.0,5.0,15,0.00,,,0.00,WUHU216DAVISVP2,2013-01-21 10:59:00,
2013-01-21 03:04:00,40.5,-1.0,30.21,NNW,333,7.0,10.0,17,0.00,,,0.00,WUHU216DAVISVP2,2013-01-21 11:04:00,
2013-01-21 03:09:00,43.6,-1.1,30.21,NNW,342,11.0,12.0,15,0.00,,,0.00,WUHU216DAVISVP2,2013-01-21 11:09:00,
2013-01-21 03:15:00,44.8,-1.6,30.21,NNW,338,8.0,12.0,14,0.00,,,0.00,WUHU216DAVISVP2,2013-01-21 11:15:00,
2013-01-21 03:20:00,43.8,-2.4,30.20,NNW,333,10.0,12.0,14,0.00,,,0.00,WUHU216DAVISVP2,2013-01-21 11:20:00,
2013-01-21 03:25:00,43.3,-2.8,30.20,NW,325,9.0,12.0,14,0.00,,,0.00,WUHU216DAVISVP2,2013-01-21 11:25:00,
2013-01-21 03:31:00,43.0,-1.6,30.20,NW,315,5.0,11.0,15,0.00,,,0.00,WUHU216DAVISVP2,2013-01-21 11:31:00,
2013-01-21 03:36:00,42.2,-2.2,30.20,NW,314,2.0,11.0,15,0.00,,,0.00,WUHU216DAVISVP2,2013-01-21 11:36:00,
2013-01-21 03:41:00,41.0,-3.2,30.21,NW,315,3.0,11.0,15,0.00,,,0.00,WUHU216DAVISVP2,2013-01-21 11:41:00,
2013-01-21 03:46:00,40.1,-2.6,30.21,NW,319,4.0,10.0,16,0.00,,,0.00,WUHU216DAVISVP2,2013-01-21 11:46:00,
2013-01-21 03:51:00,39.8,-2.8,30.20,NNW,348,10.0,10.0,16,0.00,,,0.00,WUHU216DAVISVP2,2013-01-21 11:51:00,
2013-01-21 03:56:00,38.9,-4.9,30.20,North,355,8.0,13.0,15,0.00,,,0.00,WUHU216DAVISVP2,2013-01-21 11:56:00,
2013-01-21 04:01:00,37.7,-4.5,30.20,North,351,10.0,13.0,16,0.00,,,0.00,WUHU216DAVISVP2,2013-01-21 12:01:00,
2013-01-21 04:06:00,37.4,-3.5,30.20,NNW,346,2.0,13.0,17,0.00,,,0.00,WUHU216DAVISVP2,2013-01-21 12:06:00,
2013-01-21 04:11:00,38.2,-2.8,30.20,NNW,348,5.0,13.0,17,0.00,,,0.00,WUHU216DAVISVP2,2013-01-21 12:11:00,
2013-01-21 04:17:00,37.3,-4.8,30.20,NNW,348,3.0,12.0,16,0.00,,,0.00,WUHU216DAVISVP2,2013-01-21 12:17:00,
2013-01-21 04:22:00,36.4,-3.2,30.21,NNW,337,0.0,8.0,18,0.00,,,0.00,WUHU216DAVISVP2,2013-01-21 12:22:00,
2013-01-21 04:27:00,36.6,-3.0,30.20,NNW,337,4.0,7.0,18,0.00,,,0.00,WUHU216DAVISVP2,2013-01-21 12:27:00,
2013-01-21 04:32:00,35.9,-3.6,30.20,NNW,348,3.0,6.0,18,0.00,,,0.00,WUHU216DAVISVP2,2013-01-21 12:32:00,
2013-01-21 04:37:00,35.7,-3.7,30.20,North,355,9.0,9.0,18,0.00,,,0.00,WUHU216DAVISVP2,2013-01-21 12:37:00,
2013-01-21 04:43:00,36.7,-2.9,30.21,NNE,16,7.0,12.0,18,0.00,,,0.00,WUHU216DAVISVP2,2013-01-21 12:43:00,
2013-01-21 04:48:00,37.7,-2.1,30.21,North,5,3.0,12.0,18,0.00,,,0.00,WUHU216DAVISVP2,2013-01-21 12:48:00,
2013-01-21 04:53:00,38.3,-2.8,30.21,North,360,5.0,12.0,17,0.00,,,0.00,WUHU216DAVISVP2,2013-01-21 12:53:00,
2013-01-21 04:58:00,38.6,-2.5,30.21,North,360,0.0,10.0,17,0.00,,,0.00,WUHU216DAVISVP2,2013-01-21 12:58:00,
2013-01-21 05:03:00,37.3,-3.6,30.21,North,360,2.0,9.0,17,0.00,,,0.00,WUHU216DAVISVP2,2013-01-21 13:03:00,
2013-01-21 05:08:00,36.5,-3.0,30.22,North,360,0.0,5.0,18,0.00,,,0.00,WUHU216DAVISVP2,2013-01-21 13:08:00,
2013-01-21 05:14:00,36.2,-3.3,30.22,North,360,4.0,5.0,18,0.00,,,0.00,WUHU216DAVISVP2,2013-01-21 13:14:00,
2013-01-21 05:19:00,36.8,-2.8,30.22,NNW,342,4.0,6.0,18,0.00,,,0.00,WUHU216DAVISVP2,2013-01-21 13:19:00,
2013-01-21 05:24:00,36.1,-3.4,30.22,NNW,342,1.0,6.0,18,0.00,,,0.00,WUHU216DAVISVP2,2013-01-21 13:24:00,
2013-01-21 05:29:00,35.8,-2.5,30.22,NNW,342,0.0,6.0,19,0.00,,,0.00,WUHU216DAVISVP2,2013-01-21 13:29:00,
2013-01-21 05:34:00,35.9,-1.4,30.22,NNW,342,0.0,6.0,20,0.00,,,0.00,WUHU216DAVISVP2,2013-01-21 13:34:00,
2013-01-21 05:40:00,36.4,-2.0,30.22,NNW,342,1.0,4.0,19,0.00,,,0.00,WUHU216DAVISVP2,2013-01-21 13:40:00,
2013-01-21 05:45:00,36.4,-2.0,30.22,WNW,301,3.0,5.0,19,0.00,,,0.00,WUHU216DAVISVP2,2013-01-21 13:45:00,
2013-01-21 05:50:00,36.5,-0.8,30.21,WNW,301,0.0,5.0,20,0.00,,,0.00,WUHU216DAVISVP2,2013-01-21 13:50:00,
2013-01-21 05:55:00,36.8,-1.7,30.21,NW,307,0.0,5.0,19,0.00,,,0.00,WUHU216DAVISVP2,2013-01-21 13:55:00,
2013-01-21 06:00:00,37.4,-1.2,30.21,NW,307,0.0,5.0,19,0.00,,,0.00,WUHU216DAVISVP2,2013-01-21 14:00:00,
2013-01-21 06:05:00,38.1,-0.6,30.22,North,355,1.0,7.0,19,0.00,,,0.00,WUHU216DAVISVP2,2013-01-21 14:05:00,
2013-01-21 06:10:00,38.6,-0.2,30.22,North,355,2.0,8.0,19,0.00,,,0.00,WUHU216DAVISVP2,2013-01-21 14:10:00,
2013-01-21 06:15:00,39.2,-0.8,30.22,North,360,4.0,8.0,18,0.00,,,0.00,WUHU216DAVISVP2,2013-01-21 14:15:00,
2013-01-21 06:21:00,39.8,-0.3,30.21,North,355,3.0,8.0,18,0.00,,,0.00,WUHU216DAVISVP2,2013-01-21 14:21:00,
2013-01-21 06:26:00,40.7,0.4,30.21,North,351,9.0,12.0,18,0.00,,,0.00,WUHU216DAVISVP2,2013-01-21 14:26:00,
2013-01-21 06:31:00,41.3,-0.3,30.21,NNW,348,5.0,12.0,17,0.00,,,0.00,WUHU216DAVISVP2,2013-01-21 14:31:00,
2013-01-21 06:36:00,41.2,-0.4,30.21,North,350,2.0,12.0,17,0.00,,,0.00,WUHU216DAVISVP2,2013-01-21 14:36:00,
2013-01-21 06:41:00,41.1,-0.5,30.21,North,350,4.0,12.0,17,0.00,,,0.00,WUHU216DAVISVP2,2013-01-21 14:41:00,
2013-01-21 06:46:00,41.1,-0.5,30.22,North,5,5.0,9.0,17,0.00,,,0.00,WUHU216DAVISVP2,2013-01-21 14:46:00,
2013-01-21 06:51:00,39.9,-2.7,30.22,North,5,3.0,9.0,16,0.00,,,0.00,WUHU216DAVISVP2,2013-01-21 14:51:00,
2013-01-21 06:56:00,38.4,-1.5,30.22,North,351,10.0,11.0,18,0.00,,,0.00,WUHU216DAVISVP2,2013-01-21 14:56:00,
2013-01-21 07:01:00,38.5,-1.4,30.22,North,350,8.0,11.0,18,0.00,,,0.00,WUHU216DAVISVP2,2013-01-21 15:01:00,
2013-01-21 07:06:00,38.0,-1.8,30.22,North,355,7.0,12.0,18,0.00,,,0.00,WUHU216DAVISVP2,2013-01-21 15:06:00,
2013-01-21 07:11:00,37.6,-1.0,30.22,North,355,10.0,12.0,19,0.00,,,0.00,WUHU216DAVISVP2,2013-01-21 15:11:00,
2013-01-21 07:17:00,37.7,-0.9,30.23,North,360,9.0,12.0,19,0.00,,,0.00,WUHU216DAVISVP2,2013-01-21 15:17:00,
2013-01-21 07:22:00,37.9,-0.8,30.23,North,360,9.0,12.0,19,0.00,,,0.00,WUHU216DAVISVP2,2013-01-21 15:22:00,
2013-01-21 07:27:00,38.2,-0.5,30.23,North,360,0.0,11.0,19,0.00,,,0.00,WUHU216DAVISVP2,2013-01-21 15:27:00,
2013-01-21 07:32:00,37.9,-1.9,30.23,North,360,3.0,11.0,18,0.00,,,0.00,WUHU216DAVISVP2,2013-01-21 15:32:00,
2013-01-21 07:37:00,38.0,-0.7,30.23,North,360,0.0,10.0,19,0.00,,,0.00,WUHU216DAVISVP2,2013-01-21 15:37:00,
2013-01-21 07:42:00,38.8,-1.1,30.23,North,360,0.0,6.0,18,0.00,,,0.00,WUHU216DAVISVP2,2013-01-21 15:42:00,
2013-01-21 07:47:00,40.3,0.1,30.23,North,360,0.0,4.0,18,0.00,,,0.00,WUHU216DAVISVP2,2013-01-21 15:47:00,
2013-01-21 07:52:00,41.0,-0.5,30.24,North,360,0.0,4.0,17,0.00,,,0.00,WUHU216DAVISVP2,2013-01-21 15:52:00,
2013-01-21 07:57:00,42.7,-0.4,30.23,North,360,3.0,4.0,16,0.00,,,0.00,WUHU216DAVISVP2,2013-01-21 15:57:00,
2013-01-21 08:02:00,43.7,-1.0,30.24,North,360,2.0,4.0,15,0.00,,,0.00,WUHU216DAVISVP2,2013-01-21 16:02:00,
2013-01-21 08:08:00,44.2,-0.6,30.24,North,360,5.0,5.0,15,0.00,,,0.00,WUHU216DAVISVP2,2013-01-21 16:08:00,
2013-01-21 08:13:00,45.6,0.5,30.24,North,360,4.0,5.0,15,0.00,,,0.00,WUHU216DAVISVP2,2013-01-21 16:13:00,
2013-01-21 08:18:00,46.7,-0.1,30.25,North,360,1.0,6.0,14,0.00,,,0.00,WUHU216DAVISVP2,2013-01-21 16:18:00,
2013-01-21 08:23:00,47.1,0.2,30.25,North,360,4.0,6.0,14,0.00,,,0.00,WUHU216DAVISVP2,2013-01-21 16:23:00,
2013-01-21 08:28:00,47.9,0.9,30.24,North,360,0.0,6.0,14,0.00,,,0.00,WUHU216DAVISVP2,2013-01-21 16:28:00,
2013-01-21 08:33:00,49.2,0.3,30.24,NNW,333,5.0,7.0,13,0.00,,,0.00,WUHU216DAVISVP2,2013-01-21 16:33:00,
2013-01-21 08:38:00,50.9,-0.1,30.25,NNW,339,6.0,9.0,12,0.00,,,0.00,WUHU216DAVISVP2,2013-01-21 16:38:00,
2013-01-21 08:43:00,51.9,-1.1,30.25,NNW,333,11.0,12.0,11,0.00,,,0.00,WUHU216DAVISVP2,2013-01-21 16:43:00,
2013-01-21 08:48:00,52.5,-0.6,30.25,North,5,7.0,12.0,11,0.00,,,0.00,WUHU216DAVISVP2,2013-01-21 16:48:00,
2013-01-21 08:53:00,53.0,-0.2,30.25,North,5,7.0,12.0,11,0.00,,,0.00,WUHU216DAVISVP2,2013-01-21 16:53:00,
2013-01-21 08:58:00,53.3,-0.1,30.25,North,360,9.0,14.0,11,0.00,,,0.00,WUHU216DAVISVP2,2013-01-21 16:58:00,
2013-01-21 09:04:00,53.5,-2.0,30.25,North,360,6.0,14.0,10,0.00,,,0.00,WUHU216DAVISVP2,2013-01-21 17:04:00,
2013-01-21 09:09:00,53.7,-1.9,30.25,North,355,11.0,14.0,10,0.00,,,0.00,WUHU216DAVISVP2,2013-01-21 17:09:00,
2013-01-21 09:14:00,53.7,-1.9,30.25,NW,323,9.0,14.0,10,0.00,,,0.00,WUHU216DAVISVP2,2013-01-21 17:14:00,
2013-01-21 09:19:00,54.0,-1.6,30.25,NW,321,9.0,14.0,10,0.00,,,0.00,WUHU216DAVISVP2,2013-01-21 17:19:00,
2013-01-21 09:24:00,54.2,-1.3,30.25,NW,317,8.0,14.0,10,0.00,,,0.00,WUHU216DAVISVP2,2013-01-21 17:24:00,
2013-01-21 09:29:00,54.4,-1.3,30.26,NNW,334,6.0,13.0,10,0.00,,,0.00,WUHU216DAVISVP2,2013-01-21 17:29:00,
2013-01-21 09:34:00,54.7,-1.1,30.26,NW,312,9.0,13.0,10,0.00,,,0.00,WUHU216DAVISVP2,2013-01-21 17:34:00,
2013-01-21 09:39:00,54.7,-1.1,30.26,NW,320,8.0,13.0,10,0.00,,,0.00,WUHU216DAVISVP2,2013-01-21 17:39:00,
2013-01-21 09:45:00,55.1,-0.8,30.26,NNW,333,8.0,13.0,10,0.00,,,0.00,WUHU216DAVISVP2,2013-01-21 17:45:00,
2013-01-21 09:50:00,55.7,-2.6,30.26,North,350,10.0,14.0,9,0.00,,,0.00,WUHU216DAVISVP2,2013-01-21 17:50:00,
2013-01-21 09:55:00,56.3,-1.9,30.26,NW,325,10.0,14.0,9,0.00,,,0.00,WUHU216DAVISVP2,2013-01-21 17:55:00,
2013-01-21 10:00:00,56.8,-1.5,30.26,NNW,332,7.0,14.0,9,0.00,,,0.00,WUHU216DAVISVP2,2013-01-21 18:00:00,
2013-01-21 10:05:00,57.2,-1.5,30.26,NNW,327,10.0,14.0,9,0.00,,,0.00,WUHU216DAVISVP2,2013-01-21 18:05:00,
2013-01-21 10:10:00,57.6,-1.2,30.26,NNW,339,6.0,11.0,9,0.00,,,0.00,WUHU216DAVISVP2,2013-01-21 18:10:00,
2013-01-21 10:15:00,58.3,-3.1,30.26,North,360,6.0,10.0,8,0.00,,,0.00,WUHU216DAVISVP2,2013-01-21 18:15:00,
2013-01-21 10:20:00,58.8,-2.5,30.26,North,360,5.0,10.0,8,0.00,,,0.00,WUHU216DAVISVP2,2013-01-21 18:20:00,
2013-01-21 10:25:00,59.1,-2.5,30.26,NNW,341,5.0,10.0,8,0.00,,,0.00,WUHU216DAVISVP2,2013-01-21 18:25:00,
2013-01-21 10:30:00,59.5,-2.2,30.26,NNW,347,5.0,10.0,8,0.00,,,0.00,WUHU216DAVISVP2,2013-01-21 18:30:00,
2013-01-21 10:35:00,60.1,-4.5,30.26,NNE,17,7.0,8.0,7,0.00,,,0.00,WUHU216DAVISVP2,2013-01-21 18:35:00,
2013-01-21 10:40:00,60.5,-4.2,30.25,NNE,18,7.0,9.0,7,0.00,,,0.00,WUHU216DAVISVP2,2013-01-21 18:40:00,
2013-01-21 10:46:00,60.9,-3.9,30.25,North,351,4.0,9.0,7,0.00,,,0.00,WUHU216DAVISVP2,2013-01-21 18:46:00,
2013-01-21 10:51:00,61.3,-3.6,30.25,North,355,5.0,9.0,7,0.00,,,0.00,WUHU216DAVISVP2,2013-01-21 18:51:00,
2013-01-21 10:56:00,61.3,-3.6,30.24,ENE,68,4.0,9.0,7,0.00,,,0.00,WUHU216DAVISVP2,2013-01-21 18:56:00,
2013-01-21 11:01:00,61.4,-3.6,30.24,East,101,0.0,9.0,7,0.00,,,0.00,WUHU216DAVISVP2,2013-01-21 19:01:00,
2013-01-21 11:06:00,62.2,-3.0,30.24,East,101,3.0,9.0,7,0.00,,,0.00,WUHU216DAVISVP2,2013-01-21 19:06:00,
2013-01-21 11:11:00,62.6,-2.7,30.24,East,101,5.0,9.0,7,0.00,,,0.00,WUHU216DAVISVP2,2013-01-21 19:11:00,
2013-01-21 11:16:00,63.0,-5.4,30.24,SE,144,8.0,9.0,6,0.00,,,0.00,WUHU216DAVISVP2,2013-01-21 19:16:00,
2013-01-21 11:21:00,61.8,-3.1,30.24,SSE,147,8.0,11.0,7,0.00,,,0.00,WUHU216DAVISVP2,2013-01-21 19:21:00,
2013-01-21 11:26:00,61.7,-3.3,30.23,SSE,152,6.0,11.0,7,0.00,,,0.00,WUHU216DAVISVP2,2013-01-21 19:26:00,
2013-01-21 11:32:00,61.7,-3.3,30.23,SSE,167,5.0,11.0,7,0.00,,,0.00,WUHU216DAVISVP2,2013-01-21 19:32:00,
2013-01-21 11:37:00,62.0,-6.2,30.23,SSE,165,8.0,11.0,6,0.00,,,0.00,WUHU216DAVISVP2,2013-01-21 19:37:00,
2013-01-21 11:42:00,61.8,-3.3,30.22,SSE,164,6.0,11.0,7,0.00,,,0.00,WUHU216DAVISVP2,2013-01-21 19:42:00,
2013-01-21 11:47:00,61.7,-6.3,30.23,South,174,6.0,9.0,6,0.00,,,0.00,WUHU216DAVISVP2,2013-01-21 19:47:00,
2013-01-21 11:52:00,61.6,-3.4,30.22,SSE,166,2.0,9.0,7,0.00,,,0.00,WUHU216DAVISVP2,2013-01-21 19:52:00,
2013-01-21 11:57:00,62.0,-6.1,30.22,SSE,166,6.0,9.0,6,0.00,,,0.00,WUHU216DAVISVP2,2013-01-21 19:57:00,
2013-01-21 12:02:00,61.9,-6.2,30.22,SSE,153,6.0,10.0,6,0.00,,,0.00,WUHU216DAVISVP2,2013-01-21 20:02:00,
2013-01-21 12:07:00,61.9,-6.2,30.21,SSE,162,4.0,10.0,6,0.00,,,0.00,WUHU216DAVISVP2,2013-01-21 20:07:00,
2013-01-21 12:12:00,61.8,-6.3,30.21,SSE,165,4.0,10.0,6,0.00,,,0.00,WUHU216DAVISVP2,2013-01-21 20:12:00,
2013-01-21 12:18:00,62.2,-6.0,30.21,SSE,162,5.0,10.0,6,0.00,,,0.00,WUHU216DAVISVP2,2013-01-21 20:18:00,
2013-01-21 12:23:00,62.4,-5.9,30.20,SSE,162,3.0,8.0,6,0.00,,,0.00,WUHU216DAVISVP2,2013-01-21 20:23:00,
2013-01-21 12:28:00,62.6,-5.7,30.20,South,190,2.0,8.0,6,0.00,,,0.00,WUHU216DAVISVP2,2013-01-21 20:28:00,
2013-01-21 12:33:00,62.9,-5.5,30.20,South,178,5.0,8.0,6,0.00,,,0.00,WUHU216DAVISVP2,2013-01-21 20:33:00,
2013-01-21 12:38:00,63.6,-8.7,30.20,South,177,6.0,8.0,5,0.00,,,0.00,WUHU216DAVISVP2,2013-01-21 20:38:00,
2013-01-21 12:44:00,63.5,-8.4,30.19,SE,146,4.0,11.0,5,0.00,,,0.00,WUHU216DAVISVP2,2013-01-21 20:44:00,
2013-01-21 12:49:00,63.8,-8.2,30.19,SE,129,7.0,11.0,5,0.00,,,0.00,WUHU216DAVISVP2,2013-01-21 20:49:00,
2013-01-21 12:54:00,64.1,-8.4,30.19,SE,136,6.0,11.0,5,0.00,,,0.00,WUHU216DAVISVP2,2013-01-21 20:54:00,
2013-01-21 12:59:00,64.0,-8.0,30.19,SE,131,5.0,11.0,5,0.00,,,0.00,WUHU216DAVISVP2,2013-01-21 20:59:00,
2013-01-21 13:04:00,64.0,-8.0,30.19,SE,135,4.0,10.0,5,0.00,,,0.00,WUHU216DAVISVP2,2013-01-21 21:04:00,
2013-01-21 13:09:00,64.1,-8.0,30.18,SE,135,3.0,10.0,5,0.00,,,0.00,WUHU216DAVISVP2,2013-01-21 21:09:00,
2013-01-21 13:15:00,64.1,-8.0,30.18,SE,136,3.0,10.0,5,0.00,,,0.00,WUHU216DAVISVP2,2013-01-21 21:15:00,
2013-01-21 13:20:00,64.4,-7.7,30.18,SE,136,2.0,10.0,5,0.00,,,0.00,WUHU216DAVISVP2,2013-01-21 21:20:00,
2013-01-21 13:25:00,64.7,-7.5,30.18,SE,135,2.0,8.0,5,0.00,,,0.00,WUHU216DAVISVP2,2013-01-21 21:25:00,
2013-01-21 13:30:00,64.9,-11.1,30.18,SE,136,4.0,7.0,4,0.00,,,0.00,WUHU216DAVISVP2,2013-01-21 21:30:00,
2013-01-21 13:35:00,64.9,-11.1,30.18,SE,135,2.0,7.0,4,0.00,,,0.00,WUHU216DAVISVP2,2013-01-21 21:35:00,
2013-01-21 13:40:00,65.3,-7.1,30.18,SE,135,2.0,7.0,5,0.00,,,0.00,WUHU216DAVISVP2,2013-01-21 21:40:00,
2013-01-21 13:45:00,65.6,-10.6,30.18,SSE,148,6.0,9.0,4,0.00,,,0.00,WUHU216DAVISVP2,2013-01-21 21:45:00,
2013-01-21 13:50:00,65.6,-11.9,30.17,SSE,148,4.0,9.0,4,0.00,,,0.00,WUHU216DAVISVP2,2013-01-21 21:50:00,
2013-01-21 13:55:00,65.4,-10.7,30.17,SSE,148,2.0,9.0,4,0.00,,,0.00,WUHU216DAVISVP2,2013-01-21 21:55:00,
2013-01-21 14:00:00,65.4,-10.7,30.17,SSE,147,3.0,9.0,4,0.00,,,0.00,WUHU216DAVISVP2,2013-01-21 22:00:00,
2013-01-21 14:05:00,65.4,-12.0,30.17,SSE,147,4.0,6.0,4,0.00,,,0.00,WUHU216DAVISVP2,2013-01-21 22:05:00,
2013-01-21 14:10:00,65.5,-10.7,30.17,SSE,147,2.0,6.0,4,0.00,,,0.00,WUHU216DAVISVP2,2013-01-21 22:10:00,
2013-01-21 14:15:00,65.6,-10.6,30.17,SSE,148,3.0,6.0,4,0.00,,,0.00,WUHU216DAVISVP2,2013-01-21 22:15:00,
2013-01-21 14:21:00,65.6,-11.9,30.17,SSE,147,0.0,6.0,4,0.00,,,0.00,WUHU216DAVISVP2,2013-01-21 22:21:00,
2013-01-21 14:26:00,66.4,-10.0,30.17,SSE,148,1.0,6.0,4,0.00,,,0.00,WUHU216DAVISVP2,2013-01-21 22:26:00,
2013-01-21 14:31:00,66.6,-9.9,30.17,SW,219,6.0,7.0,4,0.00,,,0.00,WUHU216DAVISVP2,2013-01-21 22:31:00,
2013-01-21 14:36:00,66.3,-11.4,30.17,SW,234,5.0,7.0,4,0.00,,,0.00,WUHU216DAVISVP2,2013-01-21 22:36:00,
2013-01-21 14:41:00,66.5,-10.0,30.16,WSW,244,5.0,7.0,4,0.00,,,0.00,WUHU216DAVISVP2,2013-01-21 22:41:00,
2013-01-21 14:46:00,66.8,-9.8,30.16,WSW,240,5.0,7.0,4,0.00,,,0.00,WUHU216DAVISVP2,2013-01-21 22:46:00,
2013-01-21 14:51:00,67.1,-10.8,30.16,WSW,240,2.0,7.0,4,0.00,,,0.00,WUHU216DAVISVP2,2013-01-21 22:51:00,
2013-01-21 14:56:00,67.3,-13.5,30.16,WSW,252,6.0,7.0,3,0.00,,,0.00,WUHU216DAVISVP2,2013-01-21 22:56:00,
2013-01-21 15:02:00,67.1,-13.7,30.16,WSW,252,5.0,7.0,3,0.00,,,0.00,WUHU216DAVISVP2,2013-01-21 23:02:00,
2013-01-21 15:07:00,67.3,-13.5,30.16,SW,225,2.0,7.0,3,0.00,,,0.00,WUHU216DAVISVP2,2013-01-21 23:07:00,
2013-01-21 15:12:00,67.6,-13.3,30.16,SW,225,4.0,7.0,3,0.00,,,0.00,WUHU216DAVISVP2,2013-01-21 23:12:00,
2013-01-21 15:17:00,67.6,-13.3,30.16,SW,225,4.0,7.0,3,0.00,,,0.00,WUHU216DAVISVP2,2013-01-21 23:17:00,
2013-01-21 15:22:00,67.8,-13.2,30.15,SW,225,1.0,7.0,3,0.00,,,0.00,WUHU216DAVISVP2,2013-01-21 23:22:00,
2013-01-21 15:27:00,68.1,-13.0,30.15,SW,225,0.0,6.0,3,0.00,,,0.00,WUHU216DAVISVP2,2013-01-21 23:27:00,
2013-01-21 15:32:00,68.2,-12.9,30.15,SW,225,1.0,5.0,3,0.00,,,0.00,WUHU216DAVISVP2,2013-01-21 23:32:00,
2013-01-21 15:37:00,67.9,-13.1,30.15,SW,225,3.0,4.0,3,0.00,,,0.00,WUHU216DAVISVP2,2013-01-21 23:37:00,
2013-01-21 15:42:00,67.3,-13.5,30.15,WSW,237,4.0,5.0,3,0.00,,,0.00,WUHU216DAVISVP2,2013-01-21 23:42:00,
2013-01-21 15:48:00,67.1,-13.7,30.15,WSW,237,2.0,5.0,3,0.00,,,0.00,WUHU216DAVISVP2,2013-01-21 23:48:00,
2013-01-21 15:53:00,67.3,-13.5,30.15,WSW,237,3.0,5.0,3,0.00,,,0.00,WUHU216DAVISVP2,2013-01-21 23:53:00,
2013-01-21 15:58:00,67.5,-13.4,30.15,WSW,237,3.0,5.0,3,0.00,,,0.00,WUHU216DAVISVP2,2013-01-21 23:58:00,
2013-01-21 16:03:00,67.5,-13.4,30.15,WSW,237,3.0,5.0,3,0.00,,,0.00,WUHU216DAVISVP2,2013-01-22 00:03:00,
2013-01-21 16:08:00,67.7,-13.3,30.15,WSW,237,3.0,5.0,3,0.00,,,0.00,WUHU216DAVISVP2,2013-01-22 00:08:00,
2013-01-21 16:14:00,67.4,-13.5,30.15,WSW,237,1.0,4.0,3,0.00,,,0.00,WUHU216DAVISVP2,2013-01-22 00:14:00,
2013-01-21 16:19:00,66.8,-13.9,30.14,WSW,237,0.0,4.0,3,0.00,,,0.00,WUHU216DAVISVP2,2013-01-22 00:19:00,
2013-01-21 16:24:00,66.4,-14.1,30.15,WSW,237,0.0,4.0,3,0.00,,,0.00,WUHU216DAVISVP2,2013-01-22 00:24:00,
2013-01-21 16:29:00,65.4,-10.7,30.14,WSW,237,0.0,3.0,4,0.00,,,0.00,WUHU216DAVISVP2,2013-01-22 00:29:00,
2013-01-21 16:34:00,64.1,-12.9,30.14,WSW,237,1.0,3.0,4,0.00,,,0.00,WUHU216DAVISVP2,2013-01-22 00:34:00,
2013-01-21 16:39:00,62.8,-12.5,30.14,WSW,237,2.0,3.0,4,0.00,,,0.00,WUHU216DAVISVP2,2013-01-22 00:39:00,
2013-01-21 16:45:00,61.7,-13.3,30.14,WSW,237,2.0,3.0,4,0.00,,,0.00,WUHU216DAVISVP2,2013-01-22 00:45:00,
2013-01-21 16:50:00,60.8,-13.9,30.14,WSW,237,0.0,3.0,4,0.00,,,0.00,WUHU216DAVISVP2,2013-01-22 00:50:00,
2013-01-21 16:55:00,59.2,-11.4,30.14,WSW,237,2.0,3.0,5,0.00,,,0.00,WUHU216DAVISVP2,2013-01-22 00:55:00,
2013-01-21 17:00:00,57.4,-13.2,30.14,WSW,241,2.0,5.0,5,0.00,,,0.00,WUHU216DAVISVP2,2013-01-22 01:00:00,
2013-01-21 17:05:00,56.5,-13.8,30.14,WNW,293,3.0,5.0,5,0.00,,,0.00,WUHU216DAVISVP2,2013-01-22 01:05:00,
2013-01-21 17:10:00,56.2,-10.3,30.14,NW,318,5.0,6.0,6,0.00,,,0.00,WUHU216DAVISVP2,2013-01-22 01:10:00,
2013-01-21 17:15:00,55.6,-10.8,30.14,NNW,347,6.0,7.0,6,0.00,,,0.00,WUHU216DAVISVP2,2013-01-22 01:15:00,
2013-01-21 17:20:00,54.2,-11.8,30.15,NNW,338,8.0,8.0,6,0.00,,,0.00,WUHU216DAVISVP2,2013-01-22 01:20:00,
2013-01-21 17:25:00,52.6,-10.0,30.15,NNW,333,8.0,9.0,7,0.00,,,0.00,WUHU216DAVISVP2,2013-01-22 01:25:00,
2013-01-21 17:31:00,52.0,-10.5,30.15,NNW,329,10.0,12.0,7,0.00,,,0.00,WUHU216DAVISVP2,2013-01-22 01:31:00,
2013-01-21 17:36:00,51.7,-10.7,30.15,NNW,346,9.0,12.0,7,0.00,,,0.00,WUHU216DAVISVP2,2013-01-22 01:36:00,
2013-01-21 17:41:00,51.4,-10.8,30.15,NNW,346,4.0,12.0,7,0.00,,,0.00,WUHU216DAVISVP2,2013-01-22 01:41:00,
2013-01-21 17:47:00,51.2,-8.3,30.16,NNW,346,3.0,12.0,8,0.00,,,0.00,WUHU216DAVISVP2,2013-01-22 01:47:00,
2013-01-21 17:52:00,51.7,-7.9,30.16,NNW,346,4.0,10.0,8,0.00,,,0.00,WUHU216DAVISVP2,2013-01-22 01:52:00,
2013-01-21 17:57:00,52.2,-7.5,30.16,NNW,346,4.0,9.0,8,0.00,,,0.00,WUHU216DAVISVP2,2013-01-22 01:57:00,
2013-01-21 18:02:00,52.3,-7.4,30.16,NNW,346,6.0,6.0,8,0.00,,,0.00,WUHU216DAVISVP2,2013-01-22 02:02:00,
2013-01-21 18:07:00,52.2,-7.5,30.16,North,350,6.0,9.0,8,0.00,,,0.00,WUHU216DAVISVP2,2013-01-22 02:07:00,
2013-01-21 18:12:00,51.8,-7.8,30.16,North,355,3.0,9.0,8,0.00,,,0.00,WUHU216DAVISVP2,2013-01-22 02:12:00,
2013-01-21 18:18:00,51.7,-7.9,30.17,North,355,0.0,9.0,8,0.00,,,0.00,WUHU216DAVISVP2,2013-01-22 02:18:00,
2013-01-21 18:23:00,51.1,-8.5,30.17,North,360,0.0,9.0,8,0.00,,,0.00,WUHU216DAVISVP2,2013-01-22 02:23:00,
2013-01-21 18:28:00,50.5,-6.5,30.17,North,360,5.0,8.0,9,0.00,,,0.00,WUHU216DAVISVP2,2013-01-22 02:28:00,
2013-01-21 18:33:00,50.4,-6.6,30.17,North,360,4.0,7.0,9,0.00,,,0.00,WUHU216DAVISVP2,2013-01-22 02:33:00,
2013-01-21 18:38:00,49.9,-7.0,30.17,North,360,5.0,7.0,9,0.00,,,0.00,WUHU216DAVISVP2,2013-01-22 02:38:00,
2013-01-21 18:43:00,49.3,-5.3,30.17,North,360,6.0,7.0,10,0.00,,,0.00,WUHU216DAVISVP2,2013-01-22 02:43:00,
2013-01-21 18:49:00,49.2,-5.2,30.17,NNW,348,8.0,10.0,10,0.00,,,0.00,WUHU216DAVISVP2,2013-01-22 02:49:00,
2013-01-21 18:54:00,49.5,-5.0,30.17,North,355,5.0,10.0,10,0.00,,,0.00,WUHU216DAVISVP2,2013-01-22 02:54:00,
2013-01-21 18:59:00,49.3,-7.5,30.17,North,355,3.0,10.0,9,0.00,,,0.00,WUHU216DAVISVP2,2013-01-22 02:59:00,
2013-01-21 19:04:00,47.7,-6.5,30.17,North,355,6.0,10.0,10,0.00,,,0.00,WUHU216DAVISVP2,2013-01-22 03:04:00,
2013-01-21 19:09:00,47.2,-6.9,30.17,NNW,336,6.0,10.0,10,0.00,,,0.00,WUHU216DAVISVP2,2013-01-22 03:09:00,
2013-01-21 19:14:00,46.7,-5.2,30.17,NNW,331,6.0,8.0,11,0.00,,,0.00,WUHU216DAVISVP2,2013-01-22 03:14:00,
2013-01-21 19:20:00,46.4,-5.4,30.17,NNW,329,5.0,8.0,11,0.00,,,0.00,WUHU216DAVISVP2,2013-01-22 03:20:00,
2013-01-21 19:25:00,46.3,-5.6,30.18,NNW,328,4.0,7.0,11,0.00,,,0.00,WUHU216DAVISVP2,2013-01-22 03:25:00,
2013-01-21 19:30:00,46.1,-5.7,30.17,NNW,338,6.0,7.0,11,0.00,,,0.00,WUHU216DAVISVP2,2013-01-22 03:30:00,
2013-01-21 19:35:00,45.6,-6.1,30.17,NNW,338,1.0,7.0,11,0.00,,,0.00,WUHU216DAVISVP2,2013-01-22 03:35:00,
2013-01-21 19:40:00,44.9,-6.7,30.18,NNW,338,2.0,7.0,11,0.00,,,0.00,WUHU216DAVISVP2,2013-01-22 03:40:00,
2013-01-21 19:45:00,44.7,-5.0,30.18,NNW,338,0.0,7.0,12,0.00,,,0.00,WUHU216DAVISVP2,2013-01-22 03:45:00,
2013-01-21 19:50:00,44.8,-4.9,30.18,NNW,340,4.0,5.0,12,0.00,,,0.00,WUHU216DAVISVP2,2013-01-22 03:50:00,
2013-01-21 19:55:00,44.5,-7.0,30.18,NNW,340,6.0,6.0,11,0.00,,,0.00,WUHU216DAVISVP2,2013-01-22 03:55:00,
2013-01-21 20:00:00,42.9,-6.4,30.18,NNW,340,7.0,7.0,12,0.00,,,0.00,WUHU216DAVISVP2,2013-01-22 04:00:00,
2013-01-21 20:06:00,42.8,-4.8,30.18,NNW,343,5.0,7.0,13,0.00,,,0.00,WUHU216DAVISVP2,2013-01-22 04:06:00,
2013-01-21 20:11:00,43.9,-5.6,30.19,NNW,344,4.0,7.0,12,0.00,,,0.00,WUHU216DAVISVP2,2013-01-22 04:11:00,
2013-01-21 20:16:00,44.2,-5.4,30.19,NNW,344,4.0,7.0,12,0.00,,,0.00,WUHU216DAVISVP2,2013-01-22 04:16:00,
2013-01-21 20:21:00,44.1,-5.4,30.19,NNW,344,4.0,7.0,12,0.00,,,0.00,WUHU216DAVISVP2,2013-01-22 04:21:00,
2013-01-21 20:26:00,44.0,-5.5,30.19,NNW,344,1.0,7.0,12,0.00,,,0.00,WUHU216DAVISVP2,2013-01-22 04:26:00,
2013-01-21 20:31:00,43.7,-5.8,30.19,NNW,344,3.0,7.0,12,0.00,,,0.00,WUHU216DAVISVP2,2013-01-22 04:31:00,
2013-01-21 20:37:00,42.9,-8.2,30.19,NNW,335,6.0,7.0,11,0.00,,,0.00,WUHU216DAVISVP2,2013-01-22 04:37:00,
2013-01-21 20:42:00,41.0,-4.6,30.19,NNW,330,5.0,8.0,14,0.00,,,0.00,WUHU216DAVISVP2,2013-01-22 04:42:00,
2013-01-21 20:47:00,41.2,-4.5,30.20,NNW,330,4.0,8.0,14,0.00,,,0.00,WUHU216DAVISVP2,2013-01-22 04:47:00,
2013-01-21 20:52:00,43.0,-4.6,30.20,NNW,330,2.0,8.0,13,0.00,,,0.00,WUHU216DAVISVP2,2013-01-22 04:52:00,
2013-01-21 20:57:00,41.5,-5.8,30.20,NNW,330,2.0,8.0,13,0.00,,,0.00,WUHU216DAVISVP2,2013-01-22 04:57:00,
2013-01-21 21:02:00,41.9,-3.9,30.20,NNW,330,2.0,6.0,14,0.00,,,0.00,WUHU216DAVISVP2,2013-01-22 05:02:00,
2013-01-21 21:08:00,41.5,-5.8,30.20,NNW,330,1.0,3.0,13,0.00,,,0.00,WUHU216DAVISVP2,2013-01-22 05:08:00,
2013-01-21 21:13:00,40.4,-5.1,30.21,NNW,329,4.0,5.0,14,0.00,,,0.00,WUHU216DAVISVP2,2013-01-22 05:13:00,
2013-01-21 21:18:00,41.7,-5.6,30.21,NNW,329,1.0,5.0,13,0.00,,,0.00,WUHU216DAVISVP2,2013-01-22 05:18:00,
2013-01-21 21:23:00,40.5,-8.3,30.21,NNW,329,4.0,5.0,12,0.00,,,0.00,WUHU216DAVISVP2,2013-01-22 05:23:00,
2013-01-21 21:28:00,39.3,-6.0,30.21,NNW,329,5.0,5.0,14,0.00,,,0.00,WUHU216DAVISVP2,2013-01-22 05:28:00,
2013-01-21 21:34:00,40.6,-5.0,30.21,NNW,329,3.0,5.0,14,0.00,,,0.00,WUHU216DAVISVP2,2013-01-22 05:34:00,
2013-01-21 21:39:00,40.8,-4.8,30.21,NNW,329,7.0,7.0,14,0.00,,,0.00,WUHU216DAVISVP2,2013-01-22 05:39:00,
2013-01-21 21:44:00,41.7,-4.1,30.21,NNW,332,6.0,8.0,14,0.00,,,0.00,WUHU216DAVISVP2,2013-01-22 05:44:00,
2013-01-21 21:49:00,41.7,-4.1,30.21,NNW,332,6.0,8.0,14,0.00,,,0.00,WUHU216DAVISVP2,2013-01-22 05:49:00,
2013-01-21 21:54:00,41.4,-5.9,30.22,NW,313,5.0,9.0,13,0.00,,,0.00,WUHU216DAVISVP2,2013-01-22 05:54:00,
2013-01-21 21:59:00,41.3,-4.4,30.22,NW,313,2.0,9.0,14,0.00,,,0.00,WUHU216DAVISVP2,2013-01-22 05:59:00,
2013-01-21 22:04:00,41.4,-5.9,30.22,NW,313,4.0,9.0,13,0.00,,,0.00,WUHU216DAVISVP2,2013-01-22 06:04:00,
2013-01-21 22:09:00,40.3,-6.8,30.22,NW,314,2.0,9.0,13,0.00,,,0.00,WUHU216DAVISVP2,2013-01-22 06:09:00,
2013-01-21 22:15:00,39.3,-6.0,30.22,NW,314,2.0,6.0,14,0.00,,,0.00,WUHU216DAVISVP2,2013-01-22 06:15:00,
2013-01-21 22:20:00,39.3,-4.6,30.22,NW,314,3.0,6.0,15,0.00,,,0.00,WUHU216DAVISVP2,2013-01-22 06:20:00,
2013-01-21 22:25:00,39.8,-5.6,30.22,NW,314,3.0,5.0,14,0.00,,,0.00,WUHU216DAVISVP2,2013-01-22 06:25:00,
2013-01-21 22:30:00,40.0,-5.5,30.22,NW,314,1.0,4.0,14,0.00,,,0.00,WUHU216DAVISVP2,2013-01-22 06:30:00,
2013-01-21 22:35:00,39.1,-7.7,30.22,NW,314,5.0,5.0,13,0.00,,,0.00,WUHU216DAVISVP2,2013-01-22 06:35:00,
2013-01-21 22:40:00,37.7,-5.9,30.22,NW,319,4.0,7.0,15,0.00,,,0.00,WUHU216DAVISVP2,2013-01-22 06:40:00,
2013-01-21 22:45:00,38.8,-5.0,30.22,NW,319,5.0,7.0,15,0.00,,,0.00,WUHU216DAVISVP2,2013-01-22 06:45:00,
2013-01-21 22:51:00,39.2,-6.1,30.21,NW,318,5.0,7.0,14,0.00,,,0.00,WUHU216DAVISVP2,2013-01-22 06:51:00,
2013-01-21 22:56:00,39.5,-4.4,30.21,NW,317,6.0,6.0,15,0.00,,,0.00,WUHU216DAVISVP2,2013-01-22 06:56:00,
2013-01-21 23:01:00,40.4,-5.1,30.21,NW,322,3.0,7.0,14,0.00,,,0.00,WUHU216DAVISVP2,2013-01-22 07:01:00,
2013-01-21 23:06:00,41.0,-4.6,30.21,NW,321,3.0,7.0,14,0.00,,,0.00,WUHU216DAVISVP2,2013-01-22 07:06:00,
2013-01-21 23:11:00,41.3,-4.4,30.21,NW,313,2.0,8.0,14,0.00,,,0.00,WUHU216DAVISVP2,2013-01-22 07:11:00,
2013-01-21 23:16:00,40.6,-5.0,30.21,NW,313,1.0,8.0,14,0.00,,,0.00,WUHU216DAVISVP2,2013-01-22 07:16:00,
2013-01-21 23:21:00,39.6,-4.3,30.21,NW,313,2.0,8.0,15,0.00,,,0.00,WUHU216DAVISVP2,2013-01-22 07:21:00,
2013-01-21 23:26:00,39.3,-4.6,30.22,NW,313,2.0,6.0,15,0.00,,,0.00,WUHU216DAVISVP2,2013-01-22 07:26:00,
2013-01-21 23:31:00,39.9,-4.1,30.22,NW,313,2.0,4.0,15,0.00,,,0.00,WUHU216DAVISVP2,2013-01-22 07:31:00,
2013-01-21 23:36:00,38.6,-5.1,30.21,NW,313,3.0,4.0,15,0.00,,,0.00,WUHU216DAVISVP2,2013-01-22 07:36:00,
2013-01-21 23:41:00,38.2,-6.9,30.21,NW,313,4.0,5.0,14,0.00,,,0.00,WUHU216DAVISVP2,2013-01-22 07:41:00,
2013-01-21 23:46:00,37.3,-4.8,30.21,NW,313,6.0,7.0,16,0.00,,,0.00,WUHU216DAVISVP2,2013-01-22 07:46:00,
2013-01-21 23:52:00,37.3,-6.2,30.21,NW,313,5.0,7.0,15,0.00,,,0.00,WUHU216DAVISVP2,2013-01-22 07:52:00,
2013-01-21 23:57:00,38.8,-3.6,30.21,NW,315,3.0,8.0,16,0.00,,,0.00,WUHU216DAVISVP2,2013-01-22 07:57:00,